Tracking 25734 objects as of 28-May-2022
HD Live streaming from Space Station
objects crossing your sky now

ORBCOMM FM 16 DEB

Track ORBCOMM FM 16 DEB now!
10-day predictions


NORAD ID: 44023
Int'l Code: 1998-046S
Perigee: 787.8 km
Apogee: 801.7 km
Inclination: 45.0 °
Period: 100.6 minutes
Semi major axis: 7165 km
RCS: Unknown
Launch date: August 2, 1998
Source: ORBCOMM (ORB)
Launch site: Pegasus launched from Eastern Range Air Space (ERAS)

Note: This is SATELLITE DEBRIS
aabbcc
Your satellite tracking list
Your tracking list is empty




NASA's NSSDC Master Catalog

Two Line Element Set (TLE):
1 44023U 98046S   22147.48274756  .00000535  00000-0  25298-3 0  9991
2 44023  45.0065  72.1553 0009699 289.0334  70.9461 14.31227502176930
Source of the keplerian elements: AFSPC